GW6852 Weather Reports


Display with metric or nautical units.
time (UTC)temp
F
wind
direction
speed
MPH
gust
MPH
rain 1hr
in
rain 24hr
in
rain mn
in
humidity
%
barometer
mb
20260503185325 67 58 3.0 4.0 0.00 0.00 0.00 62 1015.1
20260503184825 67 129 2.0 3.0 0.00 0.00 0.00 62 1015.1
20260503184322 67 85 2.0 4.0 0.00 0.00 0.00 63 1015.2
20260503183817 67 67 3.0 4.0 0.00 0.00 0.00 63 1014.9
20260503183315 67 93 2.0 2.0 0.00 0.00 0.00 64 1015.0
20260503182812 67 62 5.0 5.0 0.00 0.00 0.00 62 1015.3
20260503182312 67 108 2.0 4.0 0.00 0.00 0.00 63 1015.2
20260503181808 67 224 0.0 4.0 0.00 0.00 0.00 63 1015.2
20260503181305 67 93 2.0 3.0 0.00 0.00 0.00 64 1015.4
20260503180801 66 121 0.0 5.0 0.00 0.00 0.00 65 1015.3
20260503180300 66 44 0.0 3.0 0.00 0.00 0.00 66 1015.3
20260503175755 66 65 2.0 4.0 0.00 0.00 0.00 65 1015.4
20260503175254 65 89 2.0 2.0 0.00 0.00 0.00 69 1015.5
20260503174754 64 104 3.0 6.0 0.00 0.00 0.00 68 1015.4
20260503174253 65 192 0.0 2.0 0.00 0.00 0.00 68 1015.5
20260503173748 64 84 3.0 5.0 0.00 0.00 0.00 68 1015.4
20260503173244 64 89 2.0 5.0 0.00 0.00 0.00 71 1015.6
20260503172741 62 128 1.0 4.0 0.00 0.00 0.00 75 1015.7
20260503172238 62 67 4.0 5.0 0.00 0.00 0.00 72 1015.6
20260503171734 62 65 3.0 4.0 0.00 0.00 0.00 74 1015.6
20260503171232 62 93 2.0 4.0 0.00 0.00 0.00 75 1015.7
20260503170729 61 111 0.0 4.0 0.00 0.00 0.00 76 1015.7
20260503170226 61 58 4.0 4.0 0.00 0.00 0.00 77 1016.0
20260503160147 57 82 0.0 3.0 0.00 0.00 0.00 84 1016.1
20260503150617 53 68 0.0 1.0 0.00 0.00 0.00 92 1016.3
20260503150114 53 143 0.0 2.0 0.00 0.00 0.00 93 1016.1
20260503131007 51 120 0.0 3.0 0.00 0.00 0.00 92 1015.9
20260503130505 51 63 1.0 2.0 0.00 0.00 0.00 92 1015.8
20260503110355 53 59 1.0 2.0 0.00 0.00 0.00 85 1016.0
20260503090241 55 39 1.0 2.0 0.00 0.00 0.00 80 1015.7
20260503081208 57 51 1.0 2.0 0.00 0.00 0.00 75 1015.8
20260503080703 57 72 0.0 1.0 0.00 0.00 0.00 76 1015.8
20260503080201 57 53 0.0 2.0 0.00 0.00 0.00 75 1015.8
20260503072637 61 47 0.0 2.0 0.00 0.00 0.00 67 1015.6
20260503072134 61 298 0.0 2.0 0.00 0.00 0.00 67 1015.6
20260503071631 61 31 2.0 2.0 0.00 0.00 0.00 66 1015.6
20260503071127 61 13 2.0 2.0 0.00 0.00 0.00 65 1015.6
20260503070625 61 6 0.0 2.0 0.00 0.00 0.00 66 1015.5
20260503070123 61 315 1.0 2.0 0.00 0.00 0.00 65 1015.5
20260503055043 59 46 1.0 2.0 0.00 0.00 0.00 70 1015.3
20260503054539 59 22 2.0 2.0 0.00 0.00 0.00 70 1015.4
20260503054037 59 32 0.0 2.0 0.00 0.00 0.00 70 1015.2
20260503053535 59 29 2.0 2.0 0.00 0.00 0.00 70 1015.3
20260503053032 59 37 2.0 2.0 0.00 0.00 0.00 69 1015.3
20260503052529 58 17 1.0 2.0 0.00 0.00 0.00 70 1015.3
20260503052025 58 11 1.0 1.0 0.00 0.00 0.00 71 1015.4
20260503051520 58 46 0.0 3.0 0.00 0.00 0.00 70 1015.3
20260503051019 58 42 1.0 3.0 0.00 0.00 0.00 72 1015.3
20260503050514 58 29 1.0 2.0 0.00 0.00 0.00 73 1015.6
20260503050012 58 114 1.0 2.0 0.00 0.00 0.00 74 1015.2
20260503045509 58 112 1.0 2.0 0.00 0.00 0.00 74 1015.4
20260503045006 58 13 2.0 3.0 0.00 0.00 0.00 73 1015.3
20260503044502 58 10 0.0 2.0 0.00 0.00 0.00 73 1015.3
20260503044000 58 346 2.0 2.0 0.00 0.00 0.00 75 1015.5
20260503043456 58 33 0.0 2.0 0.00 0.00 0.00 75 1015.5
20260503042952 58 35 2.0 2.0 0.00 0.00 0.00 76 1015.3
20260503042449 58 38 0.0 2.0 0.00 0.00 0.00 76 1015.2
20260503041946 58 44 2.0 2.0 0.00 0.00 0.00 78 1015.2
20260503041443 58 93 0.0 2.0 0.00 0.00 0.00 78 1015.1
20260503040940 59 56 0.0 2.0 0.00 0.00 0.00 78 1015.0
20260503040437 59 124 0.0 1.0 0.00 0.00 0.00 79 1015.1
20260503035935 59 73 1.0 2.0 0.00 0.00 0.00 78 1015.0
20260503035431 59 44 1.0 2.0 0.00 0.00 0.00 78 1014.9
20260503034929 60 45 0.0 1.0 0.00 0.00 0.00 77 1014.8
20260503034426 60 37 0.0 2.0 0.00 0.00 0.00 76 1014.8
20260503033923 60 68 2.0 3.0 0.00 0.00 0.00 76 1014.7
20260503033421 60 85 3.0 4.0 0.00 0.00 0.00 75 1014.5
20260503032919 61 98 2.0 2.0 0.00 0.00 0.00 74 1014.5
20260503032417 61 96 2.0 2.0 0.00 0.00 0.00 74 1014.7
20260503031914 61 87 1.0 1.0 0.00 0.00 0.00 72 1014.8
20260503031412 61 53 1.0 1.0 0.00 0.00 0.00 74 1014.7
20260503030908 62 37 0.0 2.0 0.00 0.00 0.00 73 1014.8
20260503030405 62 60 1.0 1.0 0.00 0.00 0.00 71 1014.6
20260503025901 62 92 2.0 2.0 0.00 0.00 0.00 71 1014.7
20260503025359 63 89 0.0 2.0 0.00 0.00 0.00 69 1014.5
20260503024856 63 74 0.0 1.0 0.00 0.00 0.00 68 1014.5
20260503024353 64 62 0.0 2.0 0.00 0.00 0.00 66 1014.4
20260503023849 64 37 0.0 1.0 0.00 0.00 0.00 66 1014.6
20260503023346 64 103 0.0 2.0 0.00 0.00 0.00 64 1014.6
20260503022844 65 133 2.0 2.0 0.00 0.00 0.00 65 1014.6
20260503022343 65 129 1.0 2.0 0.00 0.00 0.00 64 1014.4
20260503021840 65 89 1.0 2.0 0.00 0.00 0.00 63 1014.6
20260503021337 65 95 2.0 2.0 0.00 0.00 0.00 62 1014.6
20260503020834 66 144 0.0 2.0 0.00 0.00 0.00 61 1014.6
20260503020332 66 135 0.0 2.0 0.00 0.00 0.00 61 1014.7
20260503015828 66 87 2.0 2.0 0.00 0.00 0.00 61 1014.8
20260503015325 67 82 2.0 3.0 0.00 0.00 0.00 61 1014.6
20260503014820 67 40 2.0 3.0 0.00 0.00 0.00 61 1014.6
20260503014319 67 92 2.0 3.0 0.00 0.00 0.00 61 1014.9
20260503013815 68 79 2.0 3.0 0.00 0.00 0.00 60 1014.9
20260503013313 68 66 2.0 2.0 0.00 0.00 0.00 60 1014.9
20260503012810 69 96 1.0 2.0 0.00 0.00 0.00 59 1014.7
20260503012307 69 76 2.0 3.0 0.00 0.00 0.00 57 1015.1
20260503011804 71 76 2.0 3.0 0.00 0.00 0.00 54 1015.0
20260503011301 73 116 2.0 3.0 0.00 0.00 0.00 52 1015.2
20260503010757 72 121 1.0 3.0 0.00 0.00 0.00 53 1015.1
20260503010255 73 129 2.0 2.0 0.00 0.00 0.00 52 1015.2
20260503005751 71 79 2.0 2.0 0.00 0.00 0.00 55 1015.1
20260503005249 72 92 1.0 3.0 0.00 0.00 0.00 55 1015.2
20260503004744 70 64 0.0 4.0 0.00 0.00 0.00 58 1015.2
20260503004243 70 97 2.0 3.0 0.00 0.00 0.00 57 1015.1
20260503003740 71 105 1.0 3.0 0.00 0.00 0.00 56 1015.3
20260503003237 73 95 2.0 3.0 0.00 0.00 0.00 53 1015.3
20260503002733 72 64 2.0 3.0 0.00 0.00 0.00 54 1015.3
20260503002231 72 42 3.0 4.0 0.00 0.00 0.00 54 1015.2
20260503001726 73 64 3.0 4.0 0.00 0.00 0.00 52 1015.5
20260503001223 73 108 1.0 3.0 0.00 0.00 0.00 54 1015.5
20260503000721 71 44 2.0 4.0 0.00 0.00 0.00 54 1015.4
20260503000218 72 91 2.0 4.0 0.00 0.00 0.00 56 1015.4
20260502235715 70 87 2.0 5.0 0.00 0.00 0.00 58 1015.7
20260502235213 72 81 2.0 5.0 0.00 0.00 0.00 55 1015.5
20260502234709 71 85 2.0 4.0 0.00 0.00 0.00 57 1015.6
20260502234206 71 129 1.0 4.0 0.00 0.00 0.00 57 1015.7
20260502233702 71 112 3.0 3.0 0.00 0.00 0.00 57 1015.8
20260502233159 70 205 0.0 4.0 0.00 0.00 0.00 57 1015.8
20260502232654 71 79 3.0 4.0 0.00 0.00 0.00 58 1015.8
20260502232152 70 68 3.0 4.0 0.00 0.00 0.00 58 1016.0
20260502231649 71 93 2.0 5.0 0.00 0.00 0.00 56 1016.0
20260502231146 71 103 2.0 4.0 0.00 0.00 0.00 55 1016.0
20260502230645 71 73 0.0 6.0 0.00 0.00 0.00 57 1016.1
20260502230144 71 91 2.0 6.0 0.00 0.00 0.00 56 1016.1
20260502225638 71 96 2.0 4.0 0.00 0.00 0.00 58 1016.3
20260502225136 70 81 2.0 5.0 0.00 0.00 0.00 57 1016.3
20260502224632 70 129 2.0 8.0 0.00 0.00 0.00 57 1016.4
20260502224129 69 103 2.0 4.0 0.00 0.00 0.00 58 1016.4
20260502223626 69 82 4.0 7.0 0.00 0.00 0.00 57 1016.4
20260502223125 71 68 3.0 5.0 0.00 0.00 0.00 56 1016.5
20260502222622 70 88 2.0 6.0 0.00 0.00 0.00 55 1016.5
20260502222118 71 79 0.0 4.0 0.00 0.00 0.00 54 1016.7
20260502221614 71 107 2.0 4.0 0.00 0.00 0.00 55 1016.9
20260502221111 71 79 2.0 5.0 0.00 0.00 0.00 55 1016.8
20260502220608 70 132 2.0 5.0 0.00 0.00 0.00 54 1016.9
20260502220104 71 69 2.0 3.0 0.00 0.00 0.00 53 1016.9
20260502215601 70 98 2.0 2.0 0.00 0.00 0.00 54 1017.0
20260502215058 69 77 4.0 4.0 0.00 0.00 0.00 54 1017.2
20260502214555 69 108 2.0 6.0 0.00 0.00 0.00 55 1017.1
20260502214052 69 109 3.0 5.0 0.00 0.00 0.00 56 1017.0
20260502213549 69 92 2.0 6.0 0.00 0.00 0.00 54 1017.2
20260502213047 69 71 4.0 6.0 0.00 0.00 0.00 55 1017.3
20260502212546 69 61 5.0 6.0 0.00 0.00 0.00 54 1017.4
20260502212043 69 73 3.0 6.0 0.00 0.00 0.00 54 1017.5
20260502211538 69 77 2.0 4.0 0.00 0.00 0.00 55 1017.5
20260502211036 69 93 2.0 4.0 0.00 0.00 0.00 56 1017.7
20260502210532 68 107 4.0 6.0 0.00 0.00 0.00 58 1017.7
20260502210030 68 112 4.0 5.0 0.00 0.00 0.00 59 1017.6
20260502205526 68 85 1.0 5.0 0.00 0.00 0.00 59 1017.7
20260502205023 68 114 4.0 4.0 0.00 0.00 0.00 61 1017.8
20260502204520 67 120 3.0 4.0 0.00 0.00 0.00 60 1017.9
20260502204018 67 122 4.0 6.0 0.00 0.00 0.00 61 1017.7
20260502203515 68 71 5.0 7.0 0.00 0.00 0.00 58 1017.8
20260502203012 68 71 5.0 5.0 0.00 0.00 0.00 61 1017.7
20260502202508 67 97 4.0 5.0 0.00 0.00 0.00 62 1018.0
20260502202006 67 121 4.0 5.0 0.00 0.00 0.00 66 1018.1
20260502201502 66 109 4.0 5.0 0.00 0.00 0.00 67 1017.8
20260502200958 66 105 4.0 6.0 0.00 0.00 0.00 66 1018.0
20260502200454 66 59 5.0 7.0 0.00 0.00 0.00 67 1017.9
20260502195952 65 154 2.0 5.0 0.00 0.00 0.00 68 1018.2
20260502195450 65 110 4.0 6.0 0.00 0.00 0.00 71 1018.2
20260502194945 66 115 6.0 6.0 0.00 0.00 0.00 68 1018.2
20260502194443 65 65 4.0 5.0 0.00 0.00 0.00 69 1018.1
20260502193938 65 191 1.0 8.0 0.00 0.00 0.00 70 1018.4
20260502193436 65 89 3.0 7.0 0.00 0.00 0.00 68 1018.1
20260502192931 64 128 0.0 5.0 0.00 0.00 0.00 73 1018.1
20260502192428 63 102 4.0 6.0 0.00 0.00 0.00 73 1018.1
20260502191925 63 117 4.0 5.0 0.00 0.00 0.00 73 1018.3
20260502191423 64 110 4.0 4.0 0.00 0.00 0.00 72 1018.3
20260502190921 63 136 3.0 5.0 0.00 0.00 0.00 75 1018.5
20260502190418 63 122 4.0 6.0 0.00 0.00 0.00 77 1018.1
20260502185914 62 96 4.0 5.0 0.00 0.00 0.00 77 1018.3